Pineville, WV

3:01 PM EST on December 05, 2019 (GMT -0500)
Pineville

Weather History for KI16 - November, 2019

Change the Weather History Date:

Monday, November 11, 2019

  Actual Average (KBKW) Record (KBKW)
Temperature  
Mean Temperature 50 °F -  
Max Temperature 67 °F 50 °F 78 °F (1915)
Min Temperature 34 °F 34 °F 5 °F (1913)
Degree Days  
Heating Degree Days 14    
Moisture  
Dew Point 39 °F    
Average Humidity 70    
Maximum Humidity 97    
Minimum Humidity 30    
Precipitation  
Precipitation 0.00 in - - ()
Sea Level Pressure  
Sea Level Pressure 30.06 in    
Wind  
Wind Speed - ()    
Max Wind Speed -    
Max Gust Speed -    
Visibility 9.8 miles    
Events Rain    
Averages and records for this station are not official NWS values.
T = Trace of Precipitation, MM = Missing Value Source: Averaged Metar Reports

Daily Weather History Graph

Daily Weather History Graph

Search for Another Location

Airport or City:

Astronomy

Nov. 11, 2019 Rise Set
Actual Time 7:01 AM EST 5:18 PM EST
Civil Twilight 6:33 AM EST 5:46 PM EST
Nautical Twilight 6:02 AM EST 6:17 PM EST
Astronomical Twilight 5:31 AM EST 6:48 PM EST
Moon 5:11 PM EST (11/11) 5:53 AM EST (11/11)
Length of Visible Light 11h 12m
Length of Day
10h 16m
Waxing Gibbous, 99% of the Moon is Illuminated
Nov 11
Waxing Gibbous
Nov 12
Full
Nov 19
Last Quarter
Nov 26
New
Dec 4
First Quarter

Hourly Weather History & Observations

Time (EST) Temp. Dew Point Humidity Pressure Visibility Wind Dir Wind Speed Gust Speed Precip Events Conditions
12:15 AM 37.8 °F 35.1 °F 90% 30.15 in 10.0 mi North - - N/A   Unknown
12:35 AM 37.0 °F 34.3 °F 90% 30.15 in 10.0 mi North - - N/A   Unknown
12:55 AM 36.7 °F 34.3 °F 91% 30.15 in 10.0 mi North - - N/A   Unknown
1:35 AM 37.0 °F 35.1 °F 93% 30.15 in 10.0 mi North - - N/A   Unknown
1:55 AM 37.0 °F 35.2 °F 93% 30.14 in 10.0 mi North - - N/A   Unknown
2:15 AM 37.0 °F 34.9 °F 92% 30.15 in 10.0 mi North - - N/A   Unknown
2:35 AM 36.9 °F 34.9 °F 93% 30.15 in 10.0 mi North - - N/A   Unknown
2:55 AM 36.7 °F 34.7 °F 93% 30.15 in 10.0 mi North - - N/A   Unknown
3:35 AM 36.0 °F 34.2 °F 93% 30.15 in 10.0 mi North - - N/A   Clear
3:55 AM 36.1 °F 34.5 °F 94% 30.15 in 10.0 mi North - - N/A   Clear
4:15 AM 35.6 °F 34.2 °F 94% 30.15 in 10.0 mi North - - N/A   Clear
4:35 AM 35.1 °F 33.8 °F 95% 30.15 in 10.0 mi North - - N/A   Clear
4:55 AM 34.9 °F 33.6 °F 95% 30.15 in 10.0 mi North - - N/A   Clear
5:15 AM 34.9 °F 33.8 °F 96% 30.15 in 10.0 mi North - - N/A   Unknown
5:35 AM 34.9 °F 33.6 °F 95% 30.15 in 10.0 mi North - - N/A   Unknown
5:55 AM 34.5 °F 33.1 °F 94% 30.15 in 10.0 mi North - - N/A   Unknown
6:15 AM 34.7 °F 33.3 °F 94% 30.15 in 10.0 mi North - - N/A   Unknown
6:35 AM 34.7 °F 33.3 °F 94% 30.15 in 10.0 mi North - - N/A   Unknown
6:55 AM 34.5 °F 33.1 °F 94% 30.16 in 10.0 mi North - - N/A   Unknown
7:15 AM 34.5 °F 33.3 °F 95% 30.16 in 10.0 mi North - - N/A   Unknown
7:35 AM 34.7 °F 33.4 °F 95% 30.16 in 10.0 mi North - - N/A   Unknown
7:55 AM 35.8 °F 34.7 °F 96% 30.16 in 10.0 mi North - - N/A   Unknown
8:15 AM 36.7 °F 35.6 °F 96% 30.15 in 10.0 mi North - - N/A   Unknown
8:35 AM 38.8 °F 37.4 °F 95% 30.15 in 10.0 mi North - - N/A   Clear
8:55 AM 41.5 °F 37.8 °F 86% 30.15 in 10.0 mi North - - N/A   Clear
9:20 AM 43.9 °F 38.7 °F 82% 30.14 in 10.0 mi North - - N/A   Unknown
9:35 AM 45.0 °F 39.6 °F 81% 30.15 in 10.0 mi North - - N/A   Unknown
9:55 AM 49.1 °F 41.4 °F 75% 30.14 in 10.0 mi North - - N/A   Unknown
10:15 AM 53.8 °F 40.5 °F 61% 30.14 in 10.0 mi North - - N/A   Unknown
10:35 AM 55.9 °F 40.6 °F 56% 30.14 in 10.0 mi North - - N/A   Clear
10:55 AM 59.7 °F 39.7 °F 48% 30.14 in 10.0 mi North - - N/A   Clear
11:15 AM 61.0 °F 39.7 °F 46% 30.13 in 10.0 mi North - - N/A   Clear
11:35 AM 60.1 °F 40.5 °F 48% 30.12 in 10.0 mi North - - N/A   Clear
11:55 AM 60.8 °F 39.6 °F 46% 30.10 in 10.0 mi North - - N/A   Clear
12:15 PM 63.1 °F 39.7 °F 42% 30.08 in 10.0 mi North - - N/A   Clear
12:35 PM 64.4 °F 39.7 °F 40% 30.06 in 10.0 mi North - - N/A   Clear
12:55 PM 65.5 °F 39.0 °F 38% 30.05 in 10.0 mi North - - N/A   Clear
1:15 PM 66.2 °F 38.8 °F 37% 30.03 in 10.0 mi North - - N/A   Clear
1:35 PM 67.1 °F 38.7 °F 35% 30.01 in 10.0 mi North - - N/A   Clear
1:55 PM 66.4 °F 38.1 °F 35% 30.01 in 10.0 mi North - - N/A   Clear
2:15 PM 67.1 °F 36.5 °F 32% 30.00 in 10.0 mi North - - N/A   Clear
2:35 PM 67.5 °F 36.9 °F 32% 29.99 in 10.0 mi North - - N/A   Clear
2:55 PM 66.2 °F 36.1 °F 33% 29.99 in 10.0 mi North - - N/A   Clear
3:15 PM 66.0 °F 34.2 °F 31% 29.99 in 10.0 mi North - - N/A   Clear
3:35 PM 66.0 °F 33.4 °F 30% 29.98 in 10.0 mi North - - N/A   Clear
3:55 PM 65.3 °F 33.4 °F 31% 29.98 in 10.0 mi North - - N/A   Clear
4:15 PM 64.2 °F 34.5 °F 33% 29.98 in 10.0 mi North - - N/A   Clear
4:35 PM 61.2 °F 37.9 °F 42% 29.98 in 10.0 mi North - - N/A   Clear
4:55 PM 61.7 °F 36.3 °F 39% 29.98 in 10.0 mi North - - N/A   Clear
5:15 PM 59.7 °F 37.2 °F 43% 29.98 in 10.0 mi North - - N/A   Clear
5:35 PM 58.3 °F 39.2 °F 49% 29.98 in 10.0 mi North - - N/A   Clear
5:55 PM 55.6 °F 40.8 °F 58% 29.97 in 10.0 mi North - - N/A   Clear
6:15 PM 55.6 °F 39.6 °F 55% 29.97 in 10.0 mi North - - N/A   Clear
6:35 PM 55.9 °F 39.6 °F 54% 29.98 in 10.0 mi North - - N/A   Clear
6:55 PM 54.5 °F 40.1 °F 58% 29.98 in 10.0 mi North - - N/A   Mostly Cloudy
7:15 PM 55.9 °F 41.0 °F 57% 29.98 in 10.0 mi North - - N/A   Overcast
7:35 PM 56.8 °F 40.3 °F 54% 29.98 in 10.0 mi North - - N/A   Scattered Clouds
7:55 PM 55.8 °F 40.5 °F 56% 29.97 in 10.0 mi North - - N/A   Scattered Clouds
8:15 PM 56.8 °F 40.8 °F 55% 29.98 in 10.0 mi North - - N/A   Mostly Cloudy
8:35 PM 57.6 °F 40.8 °F 54% 29.97 in 10.0 mi North - - N/A   Light Drizzle
8:55 PM 55.0 °F 45.7 °F 71% 29.98 in 10.0 mi North - - N/A Rain Light Rain
9:15 PM 52.5 °F 48.2 °F 85% 29.97 in 10.0 mi North - - N/A   Drizzle
9:35 PM 51.6 °F 48.6 °F 89% 29.97 in 10.0 mi North - - N/A Rain Light Rain
9:55 PM 51.1 °F 49.1 °F 93% 29.96 in 10.0 mi North - - N/A   Light Drizzle
10:15 PM 50.5 °F 49.1 °F 95% 29.95 in 10.0 mi North - - N/A   Light Drizzle
10:35 PM 50.4 °F 48.9 °F 95% 29.95 in 10.0 mi North - - N/A Rain Rain
10:55 PM 50.9 °F 49.5 °F 95% 29.95 in 5.0 mi North - - N/A Rain Light Rain
11:15 PM 50.4 °F 49.3 °F 96% 29.95 in 7.0 mi North - - N/A Rain Rain
11:35 PM 50.7 °F 49.8 °F 97% 29.95 in 7.0 mi North - - N/A Rain Light Rain
11:55 PM 51.8 °F 48.6 °F 89% 29.96 in 10.0 mi North - - N/A Rain Light Rain